Location: Lugano
(46.0000°N, 8.9670°E)
Time: 19:16:26
(UTC+02:00)

LilacSat-2 - Pass Details

Date: 23 May 2026
Orbit: 409 x 417 km, 97.5° (Epoch: 11 June)

Event Time Altitude Azimuth Distance (km) Brightness Sun altitude
Rises 21:50:04 0° 213° (SSW) 2,335 ? -8.0°
Reaches altitude 10° 21:53:16 10° 250° (WSW) 1,484 ? -8.4°
Maximum altitude 21:54:19 11° 269° (W) 1,413 ? -8.6°
Drops below altitude 10° 21:55:22 10° 289° (WNW) 1,491 ? -8.7°
Sets 21:58:37 0° 325° (NW) 2,365 ? -9.1°
